Benson, MN

9:58 AM CDT on May 29, 2017 (GMT -0500)
Benson Municipal

Weather History for KBBB - April, 2014

Change the Weather History Date:

Sunday, April 13, 2014

  Actual Average Record
Temperature  
Mean Temperature 36 °F -  
Max Temperature 44 °F 53 °F 89 °F (2003)
Min Temperature 28 °F 34 °F 17 °F (2008)
Degree Days  
Heating Degree Days 29    
Moisture  
Dew Point 27 °F    
Average Humidity 72    
Maximum Humidity 87    
Minimum Humidity 52    
Precipitation  
Precipitation 0.00 in - - ()
Sea Level Pressure  
Sea Level Pressure 29.95 in    
Wind  
Wind Speed 14 mph (NNE)    
Max Wind Speed 26 mph    
Max Gust Speed 38 mph    
Visibility 10 miles    
Events      
Averages and records for this station are not official NWS values.
T = Trace of Precipitation, MM = Missing Value Source: NWS Daily Summary

Daily Weather History Graph

Daily Weather History Graph

Search for Another Location

Airport or City:

Trip Planner

Search our weather history database for the weather conditions in past years. The results will help you decide how hot, cold, wet, or windy it might be!

Date:

Astronomy

Apr. 13, 2014 Rise Set
Actual Time 6:40 AM CDT 8:06 PM CDT
Civil Twilight 6:10 AM CDT 8:36 PM CDT
Nautical Twilight 5:33 AM CDT 9:14 PM CDT
Astronomical Twilight 4:53 AM CDT 9:53 PM CDT
Moon 6:41 PM CDT (4/13) 5:45 AM CDT (4/13)
Length of Visible Light 14h 26m
Length of Day
13h 25m
Waxing Gibbous, 97% of the Moon is Illuminated
Apr 13
Waxing Gibbous
Apr 15
Full
Apr 22
Last Quarter
Apr 29
New
May 6
First Quarter

Hourly Weather History & Observations

Time (CDT) Temp. Windchill Dew Point Humidity Pressure Visibility Wind Dir Wind Speed Gust Speed Precip Events Conditions
12:12 AM 41.0 °F 37.1 °F 37.4 °F 87% 29.74 in 10.0 mi NE 5.8 mph - N/A   Clear
12:33 AM 42.8 °F - 39.2 °F 87% 29.78 in 10.0 mi Calm Calm - N/A   Mostly Cloudy
12:52 AM 42.8 °F 39.3 °F 39.2 °F 87% 29.81 in 10.0 mi North 5.8 mph - N/A   Overcast
1:12 AM 42.8 °F 40.1 °F 39.2 °F 87% 29.83 in 10.0 mi North 4.6 mph - N/A   Overcast
1:33 AM 42.8 °F 38.6 °F 39.2 °F 87% 29.82 in 10.0 mi NNE 6.9 mph - N/A   Overcast
1:52 AM 42.8 °F 38.0 °F 39.2 °F 87% 29.82 in 10.0 mi NE 8.1 mph - N/A   Overcast
2:12 AM 42.8 °F 40.1 °F 39.2 °F 87% 29.84 in 10.0 mi ENE 4.6 mph - N/A   Overcast
2:33 AM 42.8 °F 38.6 °F 39.2 °F 87% 29.84 in 10.0 mi NE 6.9 mph - N/A   Overcast
2:52 AM 42.8 °F 39.3 °F 39.2 °F 87% 29.85 in 7.0 mi NE 5.8 mph - N/A   Overcast
3:12 AM 42.8 °F 40.1 °F 39.2 °F 87% 29.85 in 10.0 mi North 4.6 mph - N/A   Overcast
3:33 AM 44.6 °F 40.2 °F 39.2 °F 81% 29.85 in 10.0 mi North 8.1 mph - N/A   Overcast
3:52 AM 42.8 °F 36.6 °F 37.4 °F 81% 29.86 in 10.0 mi North 11.5 mph - N/A   Overcast
4:13 AM 41.0 °F 32.2 °F 35.6 °F 81% 29.88 in 10.0 mi North 18.4 mph 21.9 mph N/A   Overcast
4:33 AM 39.2 °F 29.8 °F 35.6 °F 87% 29.89 in 10.0 mi North 18.4 mph 25.3 mph N/A   Overcast
4:52 AM 37.4 °F 28.5 °F 33.8 °F 87% 29.90 in 10.0 mi North 15.0 mph 25.3 mph N/A   Overcast
5:13 AM 37.4 °F 28.2 °F 33.8 °F 87% 29.91 in 10.0 mi North 16.1 mph 20.7 mph N/A   Overcast
5:33 AM 35.6 °F 25.2 °F 30.2 °F 81% 29.91 in 10.0 mi North 18.4 mph 25.3 mph N/A   Overcast
5:52 AM 35.6 °F 24.5 °F 30.2 °F 81% 29.91 in 10.0 mi North 20.7 mph 26.5 mph N/A   Overcast
6:13 AM 33.8 °F 23.2 °F 30.2 °F 87% 29.91 in 10.0 mi North 17.3 mph 24.2 mph N/A   Overcast
6:33 AM 33.8 °F 22.8 °F 30.2 °F 87% 29.92 in 10.0 mi NNE 18.4 mph 28.8 mph N/A   Overcast
6:52 AM 33.8 °F 22.8 °F 30.2 °F 87% 29.92 in 10.0 mi NNE 18.4 mph 26.5 mph N/A   Overcast
7:13 AM 32.0 °F 19.2 °F 28.4 °F 87% 29.93 in 10.0 mi North 23.0 mph 28.8 mph N/A   Overcast
7:33 AM 32.0 °F 20.1 °F 28.4 °F 87% 29.94 in 10.0 mi North 19.6 mph 27.6 mph N/A   Overcast
7:52 AM 32.0 °F 20.8 °F 28.4 °F 87% 29.95 in 10.0 mi North 17.3 mph 26.5 mph N/A   Overcast
8:13 AM 32.0 °F 19.2 °F 26.6 °F 80% 29.96 in 10.0 mi NNE 23.0 mph 31.1 mph N/A   Overcast
8:32 AM 32.0 °F 18.9 °F 26.6 °F 80% 29.96 in 10.0 mi NNE 24.2 mph 28.8 mph N/A   Overcast
8:52 AM 33.8 °F 23.2 °F 26.6 °F 75% 29.96 in 10.0 mi NNE 17.3 mph 28.8 mph N/A   Overcast
9:13 AM 33.8 °F 22.2 °F 26.6 °F 75% 29.96 in 10.0 mi North 20.7 mph 25.3 mph N/A   Overcast
9:53 AM 32.0 °F 19.2 °F 26.6 °F 80% 29.97 in 10.0 mi NNE 23.0 mph 32.2 mph N/A   Overcast
10:13 AM 32.0 °F 18.9 °F 24.8 °F 75% 29.98 in 10.0 mi North 24.2 mph 32.2 mph N/A   Overcast
10:32 AM 33.8 °F 22.2 °F 26.6 °F 75% 29.97 in 10.0 mi NNE 20.7 mph 29.9 mph N/A   Overcast
10:53 AM 32.0 °F 19.5 °F 26.6 °F 80% 29.97 in 10.0 mi NNE 21.9 mph 31.1 mph N/A   Overcast
11:13 AM 33.8 °F 21.3 °F 24.8 °F 70% 29.97 in 10.0 mi NNE 24.2 mph 32.2 mph N/A   Overcast
11:32 AM 33.8 °F 21.3 °F 24.8 °F 70% 29.96 in 10.0 mi North 24.2 mph 32.2 mph N/A   Overcast
11:53 AM 33.8 °F 21.6 °F 24.8 °F 70% 29.97 in 10.0 mi NNE 23.0 mph 29.9 mph N/A   Overcast
12:13 PM 35.6 °F 24.2 °F 24.8 °F 65% 29.96 in 10.0 mi NNE 21.9 mph 29.9 mph N/A   Overcast
12:32 PM 35.6 °F 24.5 °F 24.8 °F 65% 29.97 in 10.0 mi NNE 20.7 mph 34.5 mph N/A   Overcast
12:53 PM 35.6 °F 23.7 °F 24.8 °F 65% 29.98 in 10.0 mi NNE 24.2 mph 33.4 mph N/A   Mostly Cloudy
1:13 PM 35.6 °F 24.2 °F 24.8 °F 65% 29.98 in 10.0 mi NNE 21.9 mph 28.8 mph N/A   Mostly Cloudy
1:32 PM 35.6 °F 23.7 °F 23.0 °F 60% 29.99 in 10.0 mi NE 24.2 mph 33.4 mph N/A   Mostly Cloudy
1:53 PM 35.6 °F 23.7 °F 23.0 °F 60% 29.99 in 10.0 mi NNE 24.2 mph 29.9 mph N/A   Mostly Cloudy
2:13 PM 35.6 °F 24.0 °F 23.0 °F 60% 29.99 in 10.0 mi NNE 23.0 mph 34.5 mph N/A   Mostly Cloudy
2:32 PM 35.6 °F 24.0 °F 23.0 °F 60% 30.00 in 10.0 mi NNE 23.0 mph 29.9 mph N/A   Scattered Clouds
2:53 PM 37.4 °F 26.4 °F 23.0 °F 56% 29.99 in 10.0 mi NNE 23.0 mph 32.2 mph N/A   Scattered Clouds
3:13 PM 37.4 °F 26.6 °F 23.0 °F 56% 29.98 in 10.0 mi NNE 21.9 mph 32.2 mph N/A   Scattered Clouds
3:32 PM 37.4 °F 26.6 °F 23.0 °F 56% 29.98 in 10.0 mi NNE 21.9 mph 32.2 mph N/A   Scattered Clouds
3:53 PM 37.4 °F 26.9 °F 21.2 °F 52% 29.98 in 10.0 mi NNE 20.7 mph 35.7 mph N/A   Mostly Cloudy
4:12 PM 37.4 °F 25.9 °F 21.2 °F 52% 29.98 in 10.0 mi NNE 25.3 mph 34.5 mph N/A   Scattered Clouds
4:32 PM 37.4 °F 25.9 °F 21.2 °F 52% 29.97 in 10.0 mi NNE 25.3 mph 38.0 mph N/A   Clear
4:53 PM 37.4 °F 26.1 °F 21.2 °F 52% 29.98 in 10.0 mi NNE 24.2 mph 35.7 mph N/A   Clear
5:12 PM 35.6 °F 24.0 °F 21.2 °F 56% 29.98 in 10.0 mi NNE 23.0 mph 33.4 mph N/A   Clear
5:32 PM 35.6 °F 24.2 °F 21.2 °F 56% 29.98 in 10.0 mi NNE 21.9 mph 32.2 mph N/A   Clear
5:53 PM 33.8 °F 21.6 °F 19.4 °F 56% 29.98 in 10.0 mi NNE 23.0 mph 34.5 mph N/A   Clear
6:12 PM 33.8 °F 20.8 °F 21.2 °F 60% 30.00 in 10.0 mi NNE 26.5 mph 32.2 mph N/A   Clear
6:31 PM 33.8 °F 22.2 °F 21.2 °F 60% 30.00 in 10.0 mi NNE 20.7 mph 31.1 mph N/A   Clear
7:12 PM 33.8 °F 23.2 °F 21.2 °F 60% 30.01 in 10.0 mi NNE 17.3 mph 31.1 mph N/A   Clear
7:33 PM 32.0 °F 19.2 °F 21.2 °F 64% 30.01 in 10.0 mi NNE 23.0 mph 28.8 mph N/A   Clear
7:52 PM 32.0 °F 21.6 °F 21.2 °F 64% 30.00 in 10.0 mi NNE 15.0 mph 27.6 mph N/A   Clear
8:12 PM 30.2 °F 16.2 °F 21.2 °F 69% 30.00 in 10.0 mi NNE 25.3 mph 35.7 mph N/A   Clear
8:33 PM 30.2 °F 17.1 °F 21.2 °F 69% 30.01 in 10.0 mi NNE 21.9 mph 29.9 mph N/A   Clear
8:52 PM 30.2 °F 18.1 °F 21.2 °F 69% 30.02 in 10.0 mi NNE 18.4 mph 27.6 mph N/A   Clear
9:12 PM 30.2 °F 17.8 °F 19.4 °F 64% 30.04 in 10.0 mi NNE 19.6 mph 29.9 mph N/A   Clear
9:33 PM 30.2 °F 18.1 °F 21.2 °F 69% 30.04 in 10.0 mi NNE 18.4 mph 26.5 mph N/A   Clear
9:52 PM 30.2 °F 18.1 °F 19.4 °F 64% 30.05 in 10.0 mi NNE 18.4 mph 31.1 mph N/A   Clear
10:12 PM 28.4 °F 15.1 °F 19.4 °F 69% 30.06 in 10.0 mi NNE 20.7 mph 26.5 mph N/A   Clear
10:33 PM 28.4 °F 16.2 °F 19.4 °F 69% 30.07 in 10.0 mi NNE 17.3 mph 25.3 mph N/A   Scattered Clouds
10:52 PM 30.2 °F 18.5 °F 19.4 °F 64% 30.07 in 10.0 mi NNE 17.3 mph 27.6 mph N/A   Mostly Cloudy
11:12 PM 28.4 °F 15.1 °F 19.4 °F 69% 30.08 in 10.0 mi NNE 20.7 mph 31.1 mph N/A   Overcast
11:33 PM 28.4 °F 17.0 °F 19.4 °F 69% 30.08 in 10.0 mi NNE 15.0 mph 27.6 mph N/A   Mostly Cloudy
11:52 PM 28.4 °F 16.2 °F 17.6 °F 64% 30.09 in 10.0 mi NNE 17.3 mph 24.2 mph N/A   Scattered Clouds